Location: Misciano
(43.5000°N, 11.9500°E)
Time: 17:10:56
(UTC+00:00)

Cosmos 1980 Rocket - Pass Details

Date: 13 August 2020
Orbit: 830 x 849 km, 71.0° (Epoch: 25 September)

Event Time Altitude Azimuth Distance (km) Brightness Sun altitude
Rises 19:18:52 0° 336° (NNW) 3,416 6.4 -10.7°
Reaches altitude 10° 19:21:21 10° 339° (NNW) 2,475 5.5 -11.1°
Maximum altitude 19:27:01 69° 63° (ENE) 898 2.2 -12.0°
Enters shadow 19:31:42 15° 146° (SE) 2,101 3.7 -12.7°
